Weather observations for the past three days for
NORWICH
Imperial (Metric)
Date Time (edt) Wind (mph) Vis. (mi.) Weather Sky Cond. Temperature (ºF) Relative Humidity Wind Chill (°F) Heat Index (°F) Pressure Precipitation (in)
Air Dwpt 6 hour altimeter (in) sea level (mb) 1 hr 3 hr 6 hr
Max. Min.
23 13:15 NW 3 10.00 Overcast SCT033 SCT041 OVC065 72.3 66 81% 30.11 0.0
23 12:55 NW 7 10.00 Overcast SCT033 SCT041 OVC090 75.2 64 68% 77 30.11 0.0
23 12:35 Calm 10.00 Mostly Cloudy SCT080 BKN090 75.2 64.6 70% 77 30.1 0.0
23 12:15 Calm 10.00 Overcast SCT024 BKN070 OVC100 74.7 63.9 69% 30.1 0.0
23 11:55 Calm 10.00 Overcast SCT024 BKN070 OVC095 75.2 65.5 72% 77 30.1 0.0
23 11:35 Calm 10.00 Partly Cloudy SCT070 74.8 65.8 74% 30.1 0.0
23 11:15 Calm 10.00 Mostly Cloudy BKN095 73.6 64.9 74% 30.1 0.0
23 10:55 Calm 10.00 Overcast OVC095 72.3 65.3 79% 30.1 0.0
23 10:35 Calm 10.00 Overcast SCT060 OVC095 71.6 64.6 79% 30.1 0.0
23 10:15 Calm 10.00 Overcast BKN060 OVC070 70 63.9 81% 30.1 0.0
23 09:55 Calm 10.00 Mostly Cloudy BKN065 BKN090 69.6 65.1 86% 30.09 0.0
23 09:35 Calm 10.00 Mostly Cloudy SCT065 BKN085 69.3 65.3 87% 30.09 0.0
23 09:15 Calm 10.00 Overcast SCT007 OVC085 67.5 64.6 91% 30.09 0.0
23 08:55 S 3 10.00 Overcast SCT005 SCT060 OVC085 66.7 65.1 95% 30.09 0.0
23 08:35 Calm 10.00 Overcast SCT005 BKN070 OVC085 65.8 64.9 97% 30.08 0.0
23 08:15 Calm 10.00 Overcast SCT005 BKN032 OVC049 64.8 64.4 99% 30.08 0.0
23 07:55 Calm 10.00 Overcast SCT005 BKN032 OVC085 64.6 64.4 64.6 63.5 99% 30.08 0.0 0.01 0.17
23 07:35 Calm 10.00 Overcast BKN003 BKN029 OVC050 64.4 64.4 100% 30.07 0.0 0.01
23 07:15 Calm 10.00 Overcast OVC003 63.9 63.9 100% 30.07 0.0 0.01
23 06:55 Calm 7.00 Overcast BKN003 OVC046 63.7 63.7 100% 30.06 0.0
23 06:35 Calm 7.00 Overcast SCT003 OVC048 63.5 63.5 100% 30.06 0.0
23 06:15 Calm 7.00 Light Drizzle BKN048 OVC060 63.5 63.5 100% 30.05 0.0
23 05:55 Calm 5.00 Light Rain SCT038 BKN048 OVC060 63.5 63.5 100% 30.06 0.0 0.05
23 05:35 Calm 5.00 Rain BKN037 BKN048 OVC060 63.5 63.5 100% 30.05 0.0 0.04
23 05:15 Calm 3.00 Rain SCT034 BKN046 OVC110 63.5 63.5 100% 30.05 0.0 0.03
23 04:55 Calm 5.00 Rain SCT048 BKN060 OVC110 63.5 63.5 100% 30.04 0.0 0.04 0.11
23 04:35 Calm 7.00 Rain OVC060 63.7 63.7 100% 30.04 0.0 0.01
23 04:15 Calm 7.00 Rain SCT003 OVC060 63.5 63.5 100% 30.04 0.0
23 03:55 Calm 7.00 Drizzle BKN003 OVC060 63.7 63.7 100% 30.04 0.0 0.05
23 03:35 Calm 5.00 Light Rain BKN001 BKN013 OVC048 63.7 63.7 100% 30.04 0.0 0.04
23 03:15 Calm 5.00 Rain SCT001 BKN028 OVC070 63.9 63.9 100% 30.04 0.0 0.02
23 02:55 Calm 7.00 Rain SCT001 SCT040 OVC080 63.9 63.9 100% 30.04 0.0 0.02
23 02:35 Calm 5.00 Light Rain OVC080 63.7 63.7 100% 30.04 0.0 0.02
23 02:15 Calm 5.00 Light Rain SCT050 OVC080 63.9 63.9 100% 30.04 0.0 0.01
23 01:55 Calm 7.00 Light Rain SCT050 BKN080 OVC110 63.9 63.9 66.4 63.7 100% 30.04 0.0 0.01 0.07
23 01:35 Calm 7.00 Drizzle SCT080 OVC110 63.9 63.9 100% 30.04 0.0
23 01:15 Calm 10.00 Drizzle OVC110 64 63.9 99% 30.04 0.0
23 00:55 Calm 10.00 Light Rain OVC110 64 63.9 99% 30.05 0.0 0.02
23 00:35 Calm 10.00 Light Rain OVC110 64.4 63.9 98% 30.05 0.0 0.01
23 00:15 Calm 10.00 Light Rain SCT055 SCT080 OVC120 64.2 63.9 99% 30.05 0.0
22 23:55 Calm 7.00 Light Rain SCT050 OVC110 64.4 64 99% 30.06 0.0 0.02
22 23:35 Calm 7.00 Rain OVC110 64.4 64 99% 30.06 0.0 0.01
22 23:15 Calm 10.00 Drizzle OVC110 64.6 63.9 98% 30.06 0.0
22 22:55 SE 5 10.00 Rain OVC110 64.9 64 97% 30.06 0.0 0.02
22 22:35 S 6 10.00 Overcast OVC120 64.9 64 97% 30.06 0.0
22 22:15 S 7 7.00 Light Drizzle OVC120 65.1 64.4 98% 30.06 0.0
22 21:55 S 7 10.00 Rain OVC110 65.5 64.6 97% 30.07 0.0 0.02
22 21:35 S 3 10.00 Light Rain SCT039 SCT075 OVC110 65.7 64.8 97% 30.08 0.0 0.01
22 21:15 Calm 10.00 Light Rain SCT027 SCT038 OVC110 66.2 65.1 96% 30.08 0.0
22 20:55 S 5 10.00 Rain SCT014 SCT027 OVC120 66.2 64.8 95% 30.08 0.0
22 20:35 S 12 10.00 Rain SCT012 OVC110 66.2 65.1 96% 30.07 0.0
22 20:15 Calm 10.00 Drizzle SCT010 OVC110 66.2 64.9 96% 30.06 0.0
22 19:55 S 6 10.00 Light Rain SCT034 BKN120 66.4 65.3 80.6 66.4 96% 30.05 0.0 0.05
22 19:35 SE 6 10.00 Light Rain SCT032 BKN110 67.5 64.9 92% 30.05 0.0
22 19:15 S 5 10.00 Light Rain SCT020 SCT031 BKN110 68 64.6 89% 30.06 0.0
22 18:55 Calm 10.00 Partly Cloudy SCT120 68.2 65.5 91% 30.06 0.0
22 18:35 Calm 10.00 Fair CLR 68.4 65.1 89% 30.05 0.0
22 18:15 S 5 10.00 Partly Cloudy SCT070 SCT090 68.5 64.8 88% 30.04 0.0
22 17:55 Calm 10.00 Mostly Cloudy SCT070 BKN090 68.5 65.5 90% 30.05 0.0
22 17:35 S 5 10.00 Partly Cloudy SCT080 SCT100 68.5 65.5 90% 30.05 0.0
22 17:15 S 6 10.00 Mostly Cloudy SCT090 BKN120 68.9 65.7 89% 30.05 0.0
22 16:55 S 6 10.00 Mostly Cloudy BKN100 BKN120 69.3 66.6 91% 30.07 0.0 0.05
22 16:35 Calm 10.00 Mostly Cloudy BKN110 69.6 68.2 95% 30.07 0.0
22 16:15 Calm 10.00 Partly Cloudy SCT027 SCT033 SCT042 69.3 67.5 94% 30.07 0.0
22 15:55 Calm 10.00 Light Rain SCT025 SCT031 BKN045 68.5 67.1 95% 30.07 0.0 0.05
22 15:35 N 5 4.00 Heavy Rain SCT025 BKN041 OVC060 69.4 66.9 92% 30.07 0.0 0.03
22 15:15 SW 7 10.00 Light Rain BKN055 BKN075 BKN100 76.1 65.8 71% 78 30.05 0.0
22 14:55 S 5 10.00 Mostly Cloudy SCT050 BKN100 77.4 66 68% 79 30.05 0.0
22 14:35 S 5 10.00 Mostly Cloudy BKN050 BKN070 78.3 65.3 65% 80 30.05 0.0
22 14:15 SE 5 10.00 Mostly Cloudy BKN070 79.5 62.8 57% 81 30.05 0.0
22 13:55 S 7 10.00 Partly Cloudy SCT050 SCT070 80.6 65.1 82.2 61.7 59% 82 30.05 0.0
22 13:35 S 12 10.00 Mostly Cloudy SCT050 BKN070 BKN090 81.7 65.1 57% 84 30.06 0.0
22 13:15 Calm 10.00 Partly Cloudy SCT070 SCT090 81.1 62.4 53% 82 30.07 0.0
22 12:55 SW 3 10.00 Partly Cloudy SCT070 81.5 61.3 50% 82 30.08 0.0
22 12:35 SE 6 10.00 Fair CLR 79.9 61.2 53% 81 30.09 0.0
22 12:15 SE 7 10.00 Fair CLR 80.2 62.1 54% 81 30.09 0.0
22 11:55 Calm 10.00 Fair CLR 79 63.9 60% 81 30.1 0.0
22 11:35 Calm 10.00 Fair CLR 79 63 58% 81 30.11 0.0
22 11:15 Calm 10.00 Fair CLR 77.9 63.1 61% 80 30.11 0.0
22 10:55 S 5 10.00 Fair CLR 77.7 64.9 65% 80 30.11 0.0
22 10:35 Calm 10.00 Fair CLR 76.3 64.9 68% 78 30.11 0.0
22 10:15 Calm 10.00 Fair CLR 74.5 64.8 72% 30.11 0.0
22 09:55 Calm 10.00 Fair CLR 72.9 63.3 72% 30.12 0.0
22 09:35 Calm 10.00 Fair CLR 71.1 63.7 78% 30.12 0.0
22 09:15 Calm 10.00 Fair CLR 68.4 62.6 82% 30.12 0.0
22 08:55 Calm 10.00 Fair CLR 66.2 61.9 86% 30.13 0.0
22 08:35 Calm 10.00 Fair CLR 63.9 60.8 90% 30.13 0.0
22 08:15 Calm 7.00 Fair CLR 62.6 60.1 92% 30.14 0.0
22 07:55 Calm 7.00 Fair CLR 61.7 59.7 61.7 56.3 93% 30.14 0.0
22 07:35 Calm 10.00 Fair CLR 60.6 59 94% 30.14 0.0
22 07:15 Calm 10.00 Fair CLR 59.4 58.8 98% 30.14 0.0
22 06:55 Calm 7.00 Fair CLR 58.1 58.1 100% 30.13 0.0
22 06:35 Calm 10.00 Partly Cloudy SCT002 57 57 100% 30.13 0.0
22 06:15 Calm 10.00 Mostly Cloudy BKN002 56.7 56.7 100% 30.14 0.0
22 05:55 Calm 7.00 Partly Cloudy SCT004 56.5 56.5 100% 30.14 0.0
22 05:35 Calm 10.00 Partly Cloudy SCT004 56.5 56.5 100% 30.14 0.0
22 05:15 Calm 10.00 Fair CLR 56.3 56.3 100% 30.14 0.0
22 04:55 Calm 10.00 Fair CLR 56.3 56.3 100% 30.13 0.0
22 04:35 Calm 10.00 Fair CLR 57 57 100% 30.13 0.0
22 04:15 Calm 10.00 Fair CLR 57.7 57.7 100% 30.13 0.0
22 03:55 Calm 10.00 Fair CLR 57.6 57.6 100% 30.13 0.0
22 03:35 Calm 10.00 Mostly Cloudy BKN050 58.3 58.3 100% 30.13 0.0
22 03:15 Calm 10.00 Partly Cloudy SCT050 58.1 57.7 99% 30.14 0.0
22 02:55 Calm 10.00 Fair CLR 58.8 58.5 99% 30.14 0.0
22 02:35 Calm 10.00 Partly Cloudy SCT055 59.4 59.2 99% 30.14 0.0
22 02:15 Calm 10.00 Mostly Cloudy BKN055 59.5 59.2 99% 30.14 0.0
22 01:55 Calm 10.00 Partly Cloudy SCT065 59.4 59.2 73.2 59 99% 30.14 0.0
22 01:35 S 3 10.00 Mostly Cloudy SCT060 BKN065 59.2 59 99% 30.15 0.0
22 01:15 Calm 10.00 Fair CLR 59.4 59.2 99% 30.15 0.0
22 00:55 Calm 10.00 Fair CLR 59.2 58.6 98% 30.15 0.0
22 00:35 Calm 10.00 Fair CLR 60.8 59.9 97% 30.15 0.0
22 00:15 Calm 10.00 Fair CLR 61.5 60.1 95% 30.14 0.0
21 23:55 S 3 10.00 Fair CLR 60.8 60.3 98% 30.15 0.0
21 23:35 Calm 10.00 Fair CLR 61.7 60.8 97% 30.14 0.0
21 23:15 Calm 10.00 Fair CLR 62.2 60.8 95% 30.14 0.0
21 22:55 Calm 10.00 Fair CLR 62.8 61.2 94% 30.14 0.0
21 22:35 Calm 10.00 Fair CLR 63 61 93% 30.14 0.0
21 22:15 Calm 10.00 Fair CLR 63.9 61.9 93% 30.13 0.0
21 21:55 Calm 10.00 Fair CLR 64.9 62.2 91% 30.13 0.0
21 21:35 Calm 10.00 Fair CLR 65.5 61.9 88% 30.12 0.0
21 21:15 Calm 10.00 Fair CLR 65.8 61.9 87% 30.12 0.0
21 20:55 Calm 10.00 Fair CLR 67.1 62.1 84% 30.11 0.0
21 20:35 Calm 10.00 Fair CLR 68.5 63 82% 30.11 0.0
21 20:15 Calm 10.00 Fair CLR 70.7 62.4 75% 30.1 0.0
21 19:55 Calm 10.00 Fair CLR 73.6 61.3 81 73.6 66% 30.09 0.0
21 19:35 NW 3 10.00 Fair CLR 74.3 61.9 65% 30.09 0.0
21 19:15 N 7 10.00 Partly Cloudy SCT044 75.6 62.2 63% 78 30.09 0.0
21 18:55 N 5 10.00 Fair CLR 76.1 62.2 62% 78 30.09 0.0
21 18:35 N 6 10.00 Partly Cloudy SCT095 77 62.4 61% 79 30.09 0.0
21 18:15 N 8 10.00 Partly Cloudy SCT050 SCT080 SCT095 78.3 62.8 59% 80 30.09 0.0
21 17:35 NW 6 10.00 Partly Cloudy SCT100 77.4 61.7 59% 79 30.09 0.0
21 17:15 N 7 10.00 Fair CLR 79.9 61.7 54% 81 30.09 0.0
21 16:55 NW 5 10.00 Fair CLR 79 62.1 56% 80 30.09 0.0
21 16:35 NW 7 10.00 Partly Cloudy SCT055 SCT065 SCT100 79 61.7 56% 80 30.09 0.0
21 16:15 NW 8 10.00 Mostly Cloudy SCT055 SCT065 BKN080 79.3 59.5 51% 80 30.09 0.0
21 15:55 Calm 10.00 Partly Cloudy SCT075 SCT085 SCT090 80.1 60.3 51% 81 30.09 0.0
21 15:35 NW 7 10.00 Fair CLR 79.2 60.4 53% 80 30.09 0.0
21 15:15 N 7 10.00 Partly Cloudy SCT055 80.4 60.6 51% 81 30.09 0.0
21 14:55 N 6 10.00 Partly Cloudy SCT055 78.4 59.7 53% 80 30.09 0.0
21 14:35 NW 3 10.00 Mostly Cloudy SCT055 BKN090 77.7 59.9 54% 79 30.09 0.0
21 14:15 W 5 10.00 Partly Cloudy SCT049 SCT075 SCT085 78.8 61.2 55% 80 30.09 0.0
21 13:55 NW 5 10.00 Partly Cloudy SCT049 SCT075 SCT085 77.2 59.9 78.8 57.4 55% 79 30.09 0.0
21 13:35 N 7 10.00 Mostly Cloudy SCT049 SCT060 BKN085 78.6 60.8 54% 80 30.09 0.0
21 13:15 NW 5 10.00 Partly Cloudy SCT065 SCT070 78.6 60.4 54% 80 30.09 0.0
21 12:55 W 5 7.00 Partly Cloudy SCT065 SCT070 77.9 60.4 55% 79 30.09 0.0
21 12:35 N 7 7.00 Partly Cloudy SCT065 SCT085 77.9 60.1 54% 79 30.09 0.0
21 12:15 NW 5 10.00 Partly Cloudy SCT065 77.2 60.1 56% 79 30.1 0.0
21 11:55 NW 7 10.00 Partly Cloudy SCT048 SCT055 SCT065 77 59.4 55% 79 30.1 0.0
21 11:35 Calm 10.00 Partly Cloudy SCT048 SCT065 SCT070 75.2 60.8 61% 77 30.1 0.0
21 11:15 Calm 10.00 Partly Cloudy SCT046 SCT050 SCT065 74.3 61.7 65% 30.1 0.0
21 10:55 Calm 10.00 Fair CLR 73.6 62.8 69% 30.11 0.0
21 10:35 SE 5 10.00 Fair CLR 71.6 61.5 71% 30.1 0.0
21 10:15 SE 3 10.00 Fair CLR 70.5 61.3 73% 30.1 0.0
21 09:55 S 3 10.00 Fair CLR 69.3 60.3 73% 30.11 0.0
21 09:35 Calm 10.00 Fair CLR 67.3 60.4 79% 30.11 0.0
21 09:15 Calm 10.00 Fair CLR 64.8 59 82% 30.12 0.0
21 08:55 Calm 10.00 Fair CLR 62.4 58.5 87% 30.12 0.0
21 08:35 Calm 10.00 Fair CLR 60.8 57.9 90% 30.12 0.0
21 08:15 Calm 10.00 Fair CLR 59 57.2 94% 30.12 0.0
21 07:55 Calm 10.00 Fair CLR 57.2 56.5 57.2 51.8 97% 30.12 0.0
21 07:35 Calm 7.00 Partly Cloudy SCT001 56.5 56.5 100% 30.12 0.0
21 07:15 Calm 4.00 Fog/Mist SCT001 55 55 100% 30.12 0.0
21 06:55 S 3 10.00 Fair CLR 53.6 53.6 100% 30.12 0.0
21 06:35 S 3 10.00 Fair CLR 52.3 52.3 100% 30.11 0.0
21 06:15 Calm 10.00 Fair CLR 51.8 51.8 100% 30.11 0.0
21 05:55 Calm 10.00 Fair CLR 52.2 52.2 100% 30.11 0.0
21 05:35 Calm 10.00 Fair CLR 52.5 52.5 100% 30.1 0.0
21 05:15 Calm 10.00 Fair CLR 52.5 52.5 100% 30.1 0.0
21 04:55 Calm 10.00 Fair CLR 52.5 52.5 100% 30.1 0.0
21 04:35 Calm 10.00 Fair CLR 53.8 53.8 100% 30.1 0.0
21 04:15 Calm 10.00 Fair CLR 53.2 53.2 100% 30.1 0.0
21 03:55 Calm 10.00 Fair CLR 53.8 53.6 99% 30.1 0.0
21 03:35 Calm 10.00 Partly Cloudy SCT070 54 53.8 99% 30.09 0.0
21 03:15 Calm 10.00 Partly Cloudy SCT070 54.3 54 99% 30.09 0.0
21 02:55 Calm 10.00 Mostly Cloudy BKN070 55 54.7 99% 30.1 0.0
21 02:35 Calm 10.00 Partly Cloudy SCT070 55.4 55.2 99% 30.09 0.0
21 02:15 Calm 10.00 Fair CLR 56.1 55.4 97% 30.1 0.0
21 01:55 Calm 10.00 Fair CLR 57 55.8 73 57 96% 30.09 0.0
21 01:35 Calm 10.00 Fair CLR 57.6 55.9 94% 30.09 0.0
21 01:15 Calm 10.00 Partly Cloudy SCT060 58.1 56.3 94% 30.09 0.0
21 00:55 Calm 10.00 Fair CLR 58.6 56.7 93% 30.1 0.0
21 00:35 Calm 10.00 Partly Cloudy SCT070 59.2 56.8 92% 30.1 0.0
20 23:55 Calm 10.00 Mostly Cloudy BKN055 60.8 58.1 91% 30.11 0.0
20 23:35 Calm 10.00 Partly Cloudy SCT055 59.9 57.4 91% 30.11 0.0
20 23:15 Calm 10.00 Partly Cloudy SCT055 SCT075 61.2 57.6 88% 30.11 0.0
20 22:55 Calm 10.00 Mostly Cloudy SCT055 BKN075 62.8 57.9 84% 30.11 0.0
20 22:35 Calm 10.00 Mostly Cloudy BKN075 63.1 58.1 84% 30.11 0.0
20 22:15 Calm 10.00 Mostly Cloudy BKN075 63.3 58.1 83% 30.11 0.0
20 21:55 Calm 10.00 Partly Cloudy SCT075 64.2 57.6 79% 30.11 0.0
20 21:35 Calm 10.00 Fair CLR 63.1 57.9 83% 30.1 0.0
20 21:15 Calm 10.00 Fair CLR 66.4 57.2 72% 30.1 0.0
20 20:55 Calm 10.00 Fair CLR 66.4 58.8 77% 30.09 0.0
20 20:35 N 3 10.00 Fair CLR 69.8 55.8 61% 30.09 0.0
20 20:15 Calm 10.00 Fair CLR 72 54.9 55% 30.08 0.0
20 19:55 N 3 10.00 Fair CLR 73.2 58.3 81.1 73.2 60% 30.07 0.0
20 19:35 N 6 10.00 Fair CLR 74.5 59.2 59% 30.07 0.0
20 19:15 NW 3 10.00 Fair CLR 75.7 60.1 58% 78 30.07 0.0
20 18:55 Calm 10.00 Fair CLR 77 60.1 56% 79 30.07 0.0
20 18:35 NW 3 10.00 Fair CLR 77.5 58.8 53% 79 30.07 0.0
20 18:15 Calm 10.00 Fair CLR 78.1 58.3 51% 79 30.06 0.0
20 17:55 NW 3 10.00 Fair CLR 78.8 56.8 47% 80 30.07 0.0
20 17:35 NW 3 10.00 Fair CLR 79.5 57.2 46% 80 30.07 0.0
20 17:15 NW 3 10.00 Fair CLR 78.6 56.5 47% 79 30.07 0.0
20 16:55 W 3 10.00 Fair CLR 79.2 57.2 47% 80 30.08 0.0
20 16:35 NW 5 10.00 Fair CLR 80.6 55.8 43% 81 30.08 0.0
20 16:15 W 3 10.00 Fair CLR 79.7 54.3 42% 80 30.08 0.0
20 15:55 NW 6 10.00 Fair CLR 80.2 55.6 43% 80 30.08 0.0
20 15:35 NW 9 10.00 Fair CLR 79.9 55.9 44% 80 30.08 0.0
20 15:15 SW 9 10.00 Partly Cloudy SCT060 80.4 57.4 45% 81 30.08 0.0
20 14:55 Calm 10.00 Partly Cloudy SCT060 SCT070 80.6 59.2 48% 81 30.08 0.0
20 14:35 E 3 10.00 Mostly Cloudy BKN060 BKN070 80.1 59.9 50% 81 30.09 0.0
20 14:15 N 7 10.00 Mostly Cloudy BKN060 79.7 59.9 51% 81 30.09 0.0
20 13:55 Calm 10.00 Partly Cloudy SCT060 77.9 58.1 51% 79 30.1 0.0
20 13:35 Calm 10.00 Fair CLR 78.6 58.5 50% 80 30.09 0.0
Date Time (edt) Wind (mph) Vis. (mi.) Weather Sky Cond. Air Dwpt Max. Min. Relative Humidity Wind Chill (°F) Heat Index (°F) altimeter (in) sea level (mb) 1 hr 3 hr 6 hr
6 hour
Temperature (ºF) Pressure Precipitation (in)